Weather History for Lancaster, CA

Change the Weather History Date:

Tuesday, April 23, 2013

  Actual Average Record
Temperature  
Mean Temperature 68 °F 61 °F  
Max Temperature 82 °F 75 °F 98 °F (1949)
Min Temperature 54 °F 47 °F 30 °F (1968)
Degree Days  
Heating Degree Days 0    
Month to date heating degree days 98  
Since 1 July heating degree days 2676  
Cooling Degree Days 3    
Month to date cooling degree days 30  
Year to date cooling degree days 42  
Growing Degree Days 18 (Base 50)    
Moisture  
Dew Point 24 °F    
Average Humidity 28    
Maximum Humidity 47    
Minimum Humidity 8    
Precipitation  
Precipitation 0.00 in 0.00 in 0.09 in (1988)
Month to date precipitation 0.00 0.29  
Year to date precipitation 0.95 4.71  
Since 1 July precipitation 1.11 7.18  
Snow  
Snow 0.00 in - 0.00 in ()
Month to date snowfall 0.0  
Since 1 July snowfall 0.0  
Snow Depth 0.00 in    
Sea Level Pressure  
Sea Level Pressure 29.89 in    
Wind  
Wind Speed 11 mph (NNE)    
Max Wind Speed 25 mph    
Max Gust Speed 29 mph    
T = Trace of Precipitation, MM = Missing Value Source: NWS Daily Summary

Daily Weather History Graph

Daily Weather History Graph

Search for Another Location

Airport:

Trip Planner

Search our weather history database for the weather conditions in past years. The results will help you decide how hot, cold, wet, or windy it might be!

Date:

Astronomy

Apr. 23, 2013 Rise Set
Actual Time 6:10 AM PDT 7:31 PM PDT
Civil Twilight 5:44 AM PDT 7:58 PM PDT
Nautical Twilight 5:12 AM PDT 8:29 PM PDT
Astronomical Twilight 4:40 AM PDT 9:03 PM PDT
Moon 5:35 PM PDT (4/23) 4:36 AM PDT (4/23)
Length of Visible Light 14h 13m
Length of Day
13h 20m
Waxing Gibbous, 94% of the Moon is Illuminated
Apr 23
Waxing Gibbous
Apr 25
Full
May 2
Last Quarter
May 9
New
May 17
First Quarter

Hourly Weather History & Observations

Time (PDT) Temp. Dew Point Humidity Pressure Visibility Wind Dir Wind Speed Gust Speed Precip Events Conditions
12:56 AM 63.0 °F 39.0 °F 41% 29.81 in - WSW 17.3 mph - N/A   Clear
1:56 AM 63.0 °F 39.0 °F 41% 29.81 in - WSW 12.7 mph - N/A   Clear
2:56 AM 66.0 °F 36.0 °F 33% 29.79 in - West 16.1 mph - N/A   Clear
3:56 AM 64.9 °F 36.0 °F 34% 29.82 in - West 12.7 mph - N/A   Clear
4:56 AM 62.1 °F 36.0 °F 38% 29.86 in - WNW 6.9 mph - N/A   Clear
5:56 AM 55.9 °F 35.1 °F 45% 29.90 in - NNE 5.8 mph - N/A   Clear
6:56 AM 55.9 °F 34.0 °F 44% 29.93 in - ENE 9.2 mph - N/A   Clear
7:56 AM 64.0 °F 37.9 °F 38% 29.96 in - ENE 15.0 mph - N/A   Clear
8:56 AM 70.0 °F 23.0 °F 17% 29.97 in - ENE 18.4 mph 25.3 mph N/A   Clear
9:56 AM 73.9 °F 16.0 °F 11% 29.97 in - ENE 21.9 mph 27.6 mph N/A   Clear
10:56 AM 75.0 °F 16.0 °F 11% 29.98 in - ENE 21.9 mph - N/A   Clear
11:56 AM 75.9 °F 15.1 °F 10% 29.97 in - ENE 16.1 mph 21.9 mph N/A   Clear
12:56 PM 79.0 °F 15.1 °F 9% 29.95 in - East 16.1 mph 24.2 mph N/A   Clear
1:56 PM 80.1 °F 14.0 °F 8% 29.93 in - East 12.7 mph 24.2 mph N/A   Clear
2:56 PM 80.1 °F 14.0 °F 8% 29.91 in - ENE 15.0 mph 23.0 mph N/A   Clear
3:56 PM 81.0 °F 12.9 °F 8% 29.88 in - NE 9.2 mph 21.9 mph N/A   Clear
4:56 PM 81.0 °F 14.0 °F 8% 29.87 in - NNE 8.1 mph - N/A   Clear
5:56 PM 80.1 °F 14.0 °F 8% 29.87 in - NE 8.1 mph - N/A   Clear
6:56 PM 78.1 °F 12.9 °F 8% 29.86 in - NE 5.8 mph - N/A   Clear
7:56 PM 72.0 °F 12.9 °F 10% 29.86 in - Calm Calm - N/A   Clear
8:56 PM 66.0 °F 28.0 °F 24% 29.88 in - WSW 8.1 mph - N/A   Clear
9:56 PM 60.1 °F 30.9 °F 33% 29.89 in - West 6.9 mph - N/A   Clear
10:56 PM 57.9 °F 27.0 °F 31% 29.89 in - West 8.1 mph - N/A   Clear
11:56 PM 55.9 °F 26.1 °F 32% 29.88 in - West 6.9 mph - N/A   Clear